Skip Page Navigation
NASA JPL Caltech
NASA Logo - Jet Propulsion Laboratory + View the NASA Portal
+ Center for Near-Earth Object Studies
JPL Home Earth Solar System Stars & Galaxies Technology
JPL Solar System Dynamics
BODIES ORBITS EPHEMERIDES TOOLS PHYSICAL DATA DISCOVERY FAQ SITE MAP
JPL Small-Body Database Browser
Search: [ help ]  
17295 (2827 P-L)
Classification: Main-belt Asteroid          SPK-ID: 2017295
Ephemeris | Orbit Diagram | Orbital Elements | Mission Design | Physical Parameters | Discovery Circumstances ]

[ show orbit diagram ]
Orbital Elements at Epoch 2459200.5 (2020-Dec-17.0) TDB
Reference: JPL 26 (heliocentric ecliptic J2000)
 Element Value Uncertainty (1-sigma)   Units 
e .09930401832416673 3.4127e-08  
a 2.374780009507515 8.3947e-09 au
q 2.138954811927516 8.193e-08 au
i 4.957883622674392 3.8362e-06 deg
node 27.72038142725495 4.3229e-05 deg
peri 199.555230764276 4.735e-05 deg
M 300.8834918182338 2.0084e-05 deg
tp 2459420.002654466983
(2021-Jul-24.50265447)
7.4742e-05 TDB
period 1336.698631880408
3.66
7.0877e-06
1.941e-08
d
yr
n .2693202427338225 1.428e-09 deg/d
Q 2.610605207087514 9.2283e-09 au
  Orbit Determination Parameters
   # obs. used (total)      1315  
   data-arc span      22087 days (60.47 yr)  
   first obs. used      1960-09-24  
   last obs. used      2021-03-15  
   planetary ephem.      DE441  
   SB-pert. ephem.      SB441-N16  
   condition code      0  
   norm. resid. RMS      .49976  
   source      ORB  
   producer      Otto Matic  
   solution date      2021-Apr-13 02:00:36  

Additional Information
 Earth MOID = 1.12894 au 
 Jupiter MOID = 2.36743 au 
 T_jup = 3.531 
[ show covariance matrix ]

Ephemeris | Orbit Diagram | Orbital Elements | Mission Design | Physical Parameters | Discovery Circumstances ]

Physical Parameter Table
Parameter Symbol Value Units Sigma Reference Notes
absolute magnitude H 15.17   n/a E2021B10  
diameter diameter 2.185 km 0.323 urn:nasa:pds:neowise_diameters_albedos::2.0[mainbelt] (http://adsabs.harvard.edu/abs/2011ApJ...741...68M)  
geometric albedo albedo 0.370   0.136 urn:nasa:pds:neowise_diameters_albedos::2.0[mainbelt] (http://adsabs.harvard.edu/abs/2011ApJ...741...68M)  

17295 (2827 P-L)          Discovered 1960-Sep-24 by van Houten, C. J., van Houten-Groeneveld, I., Gehrels, T. at Palomar
Reference: 20000913/Numbers.arcLast Updated: 2004-04-19

Alternate Designations
 2827 P-L = 1993 TC41 
Ephemeris | Orbit Diagram | Orbital Elements | Mission Design | Physical Parameters | Discovery Circumstances ]
ABOUT SSD CREDITS/AWARDS PRIVACY/COPYRIGHT GLOSSARY LINKS
FirstGov 2021-Apr-17 23:13 UT
(server date/time)  
NASA Home Page
Site Manager:   Ryan S. Park
Webmaster  Alan B. Chamberlin